Location: *
(51.8333°S, 179.7500°W)
Time: 00:29:52
(UTC+00:00)

Daily predictions for brighter satellites

Satellite Brightness Start Highest point End
(mag) Time Altitude Azimuth Time Altitude Azimuth Time Altitude Azimuth
Meteor 2-11 Rocket 4.5 04:35:25 10° S 04:41:34 64° ESE 04:47:39 10° NNE
Cosmos 1934 Rocket 4.1 04:35:28 10° S 04:41:49 84° ESE 04:48:11 10° N
DMSP B5D2-2 4.3 04:40:11 10° NE 04:45:15 49° ESE 04:50:21 10° S
SJ-12 4.4 04:42:51 10° SSE 04:46:54 43° E 04:50:53 10° N
ERBS 3.2 04:44:19 10° WSW 04:47:14 32° S 04:50:09 10° ESE
Cosmos 1812 Rocket 4.2 04:43:22 10° SSW 04:47:51 64° W 04:52:14 10° N
Cosmos 1420 Rocket 4.3 04:47:22 10° NNW 04:52:44 73° WSW 04:58:08 10° SSE
Cosmos 1850 Rocket 4.1 04:47:50 10° SSW 04:53:08 88° WNW 04:58:26 10° NNE
Cosmos 1825 3.2 04:51:11 10° NNW 04:54:53 49° WSW 04:58:39 10° S
BREEZE-M DEB (TANK) 4.0 04:47:26 10° W 05:00:20 62° NNW 05:04:21 10° NE
Cosmos 1656 3.7 04:54:43 10° SSW 05:00:30 75° ESE 05:06:15 10° NE
COSMO-SKYMED 1 2.6 04:56:41 10° NNE 05:01:05 85° ESE 05:05:33 10° SSW
USA 308 3.0 04:57:12 10° W 05:01:26 65° S 05:05:38 10° E
CZ-2C R/B 3.9 04:57:17 10° N 05:02:45 50° W 05:08:12 10° SSW
CZ-2C R/B 4.3 04:59:36 10° S 05:03:28 26° WSW 05:07:21 10° WNW
Cosmos 2100 Rocket 4.5 05:01:56 10° S 05:07:54 39° ESE 05:13:44 10° NE
Cosmos 1452 Rocket 3.5 05:02:44 10° NNW 05:08:00 72° ENE 05:13:19 10° SSE
SL-16 R/B 4.2 05:04:16 10° WSW 05:08:18 19° SSW 05:12:21 10° SSE
Cosmos 1602 Rocket 4.4 05:04:31 10° NNW 05:08:49 53° WSW 05:13:11 10° S
PSLV R/B 3.9 05:04:58 10° S 05:09:14 68° WSW 05:13:26 10° NNW
Cosmos 1340 Rocket 4.1 05:06:16 10° NE 05:09:26 22° E 05:12:38 10° SE
Cosmos 1459 Rocket 4.5 05:04:25 10° S 05:10:07 37° ESE 05:15:49 10° NE
Cosmos 1980 Rocket 2.9 05:08:14 10° SSW 05:13:21 33° SE 05:18:24 10° ENE
Cosmos 2333 Rocket 4.2 05:11:44 10° SSW 05:13:56 12° S 05:16:07 10° SSE
Cosmos 1812 4.2 05:11:30 10° SSE 05:14:04 17° ESE 05:16:38 10° ENE
Cosmos-2242 4.3 05:10:01 10° SSW 05:14:10 45° W 05:18:18 10° NNW
H-2A R/B 3.3 05:10:57 10° SE 05:14:27 18° E 05:17:52 10° NE
Cosmos 2058 2.9 05:11:50 10° N 05:16:03 73° E 05:20:17 10° SSE
Cosmos 2369 4.2 05:11:19 10° SSW 05:16:42 38° SE 05:22:00 10° ENE
Envisat 3.4 05:12:11 10° S 05:17:19 67° WSW 05:22:24 10° NNW
Cosmos 2322 Rocket 3.9 05:14:56 10° SSW 05:18:22 16° SSE 05:20:47 13° SE
Cosmos 1953 Rocket 3.6 05:15:30 10° N 05:19:53 63° E 05:24:18 10° SSE
H-2A R/B 3.2 05:16:38 10° S 05:20:28 63° WSW 05:24:19 10° NNW
Lacrosse 5 2.4 05:15:43 10° W 05:20:43 50° S 05:24:44 16° ESE
SMAP 4.4 05:17:55 12° SE 05:21:04 20° E 05:24:34 10° NE
APEX 3.6 05:18:24 10° NW 05:21:05 41° SW 05:24:04 10° SSE
SeaSat 1 3.5 05:17:14 10° SSE 05:21:56 42° SW 05:26:35 10° WNW
Cosmos 1939 Rocket 3.6 05:18:48 10° SSE 05:22:23 32° E 05:25:54 10° NNE
NOAA 11 4.2 05:18:23 10° SSE 05:23:56 78° ENE 05:29:26 10° N
CZ-4B R/B 4.2 05:19:28 10° SSE 05:24:00 61° E 05:28:23 10° N
Cosmos 1933 4.0 05:20:59 10° S 05:24:45 33° ESE 05:28:28 10° NE
Cosmos 2082 Rocket 3.7 05:22:36 10° NE 05:25:32 14° E 05:26:12 14° E
Cosmos 968 Rocket 3.6 05:20:35 10° SSW 05:25:53 60° ESE 05:31:08 10° NE
USA 305 2.9 05:22:01 10° WSW 05:26:15 72° S 05:29:30 17° E
ATLAS 2AS CENTAUR R/B 2.8 05:22:04 10° SW 05:29:03 86° SE 05:36:30 10° NE
Lacrosse 4 Rocket 1.5 05:25:00 10° NW 05:29:15 82° SW 05:33:12 13° SE
Cosmos 2360 4.2 05:23:38 10° SSW 05:29:24 63° SE 05:35:05 10° NE
Cosmos 1633 4.0 05:27:20 10° NW 05:30:40 38° WSW 05:34:01 10° S
Meteor 1-31 Rocket 2.8 05:26:40 10° SSE 05:30:41 65° ENE 05:34:37 10° N
CZ-4B R/B 3.9 05:33:17 21° E 05:33:41 21° E 05:36:35 10° NE
Cosmos 1697 Rocket 2.7 05:28:06 10° SSW 05:33:50 68° ESE 05:39:29 10° NE
Cosmos 1782 3.4 05:31:15 10° S 05:34:56 33° ESE 05:38:34 10° NE
Cosmos 2151 3.9 05:34:51 10° NNE 05:38:34 28° E 05:40:44 19° SE
Cosmos 1725 Rocket 4.4 05:34:58 10° S 05:40:50 38° ESE 05:46:39 10° NE
GENESIS II 4.4 05:38:17 10° SW 05:41:58 47° SE 05:44:01 23° ENE
BREEZE-M DEB (TANK) 3.3 05:39:03 10° WNW 05:43:53 42° N 05:45:07 25° ENE
Cosmos 2219 Rocket 4.2 05:42:55 10° S 05:45:11 12° SSE 05:46:53 11° SSE
Lacrosse 5 rocket 2.0 05:41:42 10° W 05:45:40 41° S 05:47:35 24° SE
Cosmos 1842 Rocket 3.5 05:41:57 10° S 05:46:31 83° ESE 05:50:59 10° NNE
COSMOS 2406 4.0 05:46:35 10° NNE 05:51:31 31° ENE 05:53:39 24° ESE
SJ-7 4.4 05:49:04 10° SSE 05:53:20 75° ENE 05:57:27 10° N
Landsat 5 3.6 05:50:08 10° NNE 05:54:40 89° W 05:59:07 10° SSW
Orbus 7S? 3.5 05:49:54 10° WSW 05:54:46 48° S 05:55:41 36° ESE
SL-16 R/B 3.3 05:52:15 10° SSW 05:56:57 25° SE 05:58:02 24° SE
Cosmos 1076 Rocket 3.6 05:55:54 10° N 06:00:13 58° E 06:03:55 14° SSE
CZ-2C R/B 3.7 05:56:07 10° S 06:00:47 50° WSW 06:05:28 10° NW
SJ 16-02 2.9 05:57:49 10° S 06:00:16 20° SSE 06:00:16 20° SSE
RESURS DK-1 2.8 05:57:54 10° SSW 06:01:55 41° SE 06:02:47 36° E
CZ-4C R/B 2.7 05:58:57 10° NNE 06:02:09 63° ESE 06:05:28 10° S
USA 281 3.5 05:59:45 17° SE 06:04:45 45° ENE 06:11:04 10° N
Cosmos 1000 Rocket 4.4 05:58:51 10° N 06:04:56 64° E 06:11:09 10° SSE
Meteor 2-3 Rocket 3.7 05:59:57 10° N 06:05:29 63° E 06:11:09 10° SSE
CBERS 1 LM4 rocket 4.4 06:01:52 10° SSE 06:06:43 80° WSW 06:11:33 10° NNW
Cosmos 1110 Rocket 4.4 06:02:14 10° NW 06:07:34 65° WSW 06:12:38 11° SSE
Cosmos 2221 3.6 06:03:34 10° SSW 06:07:54 49° W 06:12:11 10° NNW
USA 306 2.8 06:04:01 10° WSW 06:08:17 90° ENE 06:09:50 38° ENE
Cosmos 2237 Rocket 4.4 06:07:51 10° SSW 06:09:11 11° S 06:10:32 10° SSE
H-2A R/B 2.9 06:10:08 31° SE 06:10:08 31° SE 06:13:27 10° S
USA 215 4.3 06:03:33 10° NNE 06:09:49 45° NW 06:16:08 10° WSW
USA 307 2.8 06:06:27 10° WSW 06:10:43 87° SSE 06:12:07 42° ENE
Cosmos 2278 3.8 06:11:06 10° SSW 06:16:44 52° SE 06:19:04 32° ENE
Cosmos 1354 Rocket 4.4 06:11:57 10° SSW 06:17:01 42° SE 06:17:58 39° E
Cosmos 1302 Rocket 3.9 06:12:22 10° NNW 06:17:37 79° ENE 06:20:56 23° SSE
Meteor 1-26 Rocket 4.4 06:13:39 10° SSW 06:19:49 87° W 06:25:54 10° N
ERBS 3.3 06:20:05 10° WSW 06:22:25 34° SSW 06:22:25 34° SSW
Cosmos 1486 Rocket 3.9 06:19:22 10° SSW 06:24:47 83° ESE 06:30:10 10° NNE
Cosmos 1833 Rocket 2.6 06:19:35 10° NNW 06:25:16 79° ENE 06:28:19 29° SE
Meteor 2-6 Rocket 4.2 06:19:43 10° S 06:25:23 55° ESE 06:29:55 15° NNE
Aureole 1 Rocket 4.2 06:17:23 10° SSW 06:25:24 85° ESE 06:31:44 10° NNE
Cosmos 2360 Rocket 3.6 06:21:13 10° SSW 06:25:09 22° SSE 06:25:09 22° SSE
Cosmos 2173 Rocket 4.3 06:19:24 10° SSW 06:25:52 73° W 06:32:10 10° N
Cosmos 2016 Rocket 3.9 06:20:49 10° S 06:27:07 81° E 06:33:23 10° NNE
Cosmos 192 4.3 06:22:15 10° NNW 06:27:14 88° ENE 06:29:47 30° SSE
CZ-2D R/B 3.4 06:30:34 59° NNE 06:30:34 59° NNE 06:33:54 10° N
Cosmos 1802 Rocket 4.1 06:26:38 10° SSW 06:33:07 81° W 06:39:36 10° N
NOAA 12 4.5 06:29:52 10° S 06:35:13 65° WSW 06:40:29 10° NNW
Cosmos 2233 Rocket 4.0 06:29:41 10° S 06:35:56 60° ESE 06:42:10 10° NNE
Cosmos 1992 Rocket 4.0 06:35:01 10° N 06:40:10 58° ENE 06:40:26 58° E
Cosmos 1864 Rocket 4.4 06:34:01 10° S 06:40:16 88° W 06:46:27 10° N
USA 308 2.9 06:36:57 10° WSW 06:41:11 74° NNW 06:41:25 71° N
SL-08 R/B 4.4 06:37:08 10° S 06:43:32 89° ESE 06:49:45 10° N
Cosmos 1340 Rocket 4.1 06:41:43 10° NW 06:45:35 42° WSW 06:48:23 17° S
Cosmos 1607 4.0 06:40:42 10° NW 06:47:01 82° SW 06:49:35 39° SE
Cosmos 1812 3.3 06:46:16 10° SSW 06:50:07 56° W 06:53:55 10° N
ADEOS 4.2 06:46:54 10° S 06:52:06 56° WSW 06:57:15 10° NW
Cosmos 1503 Rocket 3.8 06:48:25 10° SSW 06:53:42 87° ESE 06:54:37 62° NNE
H-2A R/B 2.1 06:51:10 22° S 06:54:28 74° WSW 06:59:25 10° NNW
Cosmos 1980 Rocket 2.6 06:52:09 10° SW 06:57:44 61° WNW 07:02:06 17° N
GEOS 3 Rocket 3.9 06:59:07 51° NNE 06:59:07 51° NNE 07:03:34 10° NNW
SMAP 3.5 06:56:23 28° S 06:58:50 62° WSW 07:03:28 10° NNW
Cosmos 2333 Rocket 3.8 06:55:54 10° SSW 06:58:56 21° SSE 06:58:56 21° SSE
Cosmos 2369 4.5 06:55:31 10° SW 07:01:05 52° WNW 07:06:35 10° N
Cosmos 2322 Rocket 3.0 06:58:31 10° SSW 07:02:36 37° SSE 07:02:36 37° SSE
Lacrosse 5 2.3 06:59:18 10° WSW 07:03:56 53° S 07:03:56 53° S
ARGOS 3.0 07:04:57 76° NE 07:04:57 76° NE 07:10:06 10° NNW
USA 305 3.7 07:01:41 10° WSW 07:05:15 46° WNW 07:05:15 46° WNW
Cosmos 2061 Rocket 4.4 07:00:44 10° SSW 07:07:09 65° W 07:13:25 10° N
Lacrosse 4 Rocket 3.6 07:05:21 10° W 07:08:36 20° SSW 07:09:27 19° SSW
Cosmos 2082 Rocket 2.2 07:03:01 10° NNW 07:08:05 69° NNE 07:08:05 69° NNE
CZ-4B R/B 4.1 07:09:17 36° W 07:09:17 36° W 07:12:20 10° NW
Cosmos 2151 4.4 07:11:39 10° NW 07:15:42 37° WSW 07:17:20 27° SSW
Cosmos 724 4.3 07:10:52 10° NW 07:17:04 83° SW 07:17:39 74° SSE
IRAS Rocket 4.2 07:19:03 75° NNW 07:19:29 81° WNW 07:25:11 10° SSW
Radarsat Rocket 4.4 07:17:55 22° SSE 07:22:53 90° W 07:30:46 10° NNW
Meteor 1-10 Rocket 4.2 07:17:16 10° SSW 07:22:57 80° WSW 07:22:57 80° WSW
Lacrosse 5 rocket 3.4 07:21:23 10° WSW 07:23:07 23° SW 07:23:07 23° SW
Cosmos 2219 Rocket 4.1 07:26:28 10° SSW 07:28:35 19° S 07:28:35 19° S
COSMOS 2406 3.7 07:29:57 10° NW 07:35:34 57° SW 07:35:45 56° SW
SJ 16-02 3.6 07:35:51 10° SSW 07:37:14 19° SSW 07:37:14 19° SSW
SL-16 R/B 3.0 07:36:04 10° SSW 07:39:55 44° SSW 07:39:55 44° SSW
H-2A R/B 4.2 07:47:12 24° SW 07:47:12 24° SW 07:49:27 10° SSW
USA 281 3.9 07:46:38 33° S 07:49:19 51° SW 07:55:41 10° NW
Cosmos 1833 Rocket 4.4 08:05:01 10° W 08:09:51 28° SW 08:10:02 28° SW
Cosmos 2360 Rocket 4.1 08:04:51 10° SSW 08:06:55 23° SSW 08:06:55 23° SSW
Cosmos 2322 Rocket 4.5 08:42:42 10° SW 08:44:25 19° SW 08:44:25 19° SW
